STARLINK-34326 (64221 NORAD) Tracking and Keplerian Element Data

This shows tracking and keplerian element data for the satellite.

Feedback or suggestion? Click here.




ElementValue
Catalog64221
NameSTARLINK-34326
Epoch Orbit3238
Epoch Day354.18889678
Epoch Year2025
RAAN48.8875
Inclination53.1575
Eccentricity0.0001586
Argument of Perigee90.5118
Mean Anonmoly269.6065
Mean Motion15.30206488
Decay Rate0.00018956
L11 64221U 25117U 25354.18889678 .00018956 00000+0 65038-3 0 9998
L22 64221 53.1575 48.8875 0001586 90.5118 269.6065 15.30206488 32384



Live tracking and technical data element details for STARLINK-34326 (NORAD 64221). STARLINK-34326 can be tracked NOW for your location showing map with azimuth and elevation plus other details from your city location.







IsCatalogInMostPopularTable: catalog: 64221, numindb: 7
Update: records affected: 1



GetName: 64221 STARLINK-34326

Hit Count: updated at: Wed, 15 Apr 2026 01:12:39 GMT